Time,TemperatureF,DewpointF,PressureIn,WindDirection,WindDirectionDegrees,WindSpeedMPH,WindSpeedGustMPH,Humidity,HourlyPrecipIn,Conditions,Clouds,dailyrainin,SoftwareType,DateUTC
2013-07-19 00:38:00,78.4,69.2,29.70,SSW,203,6.7,6.7,73,0.00,,,0.00,WUHU21623XXSP,2013-07-19 04:38:00,
2013-07-19 01:38:00,77.7,69.7,29.68,South,180,5.6,5.6,76,0.00,,,0.00,WUHU21623XXSP,2013-07-19 05:38:00,
2013-07-19 02:38:00,77.5,70.2,29.66,SSW,203,2.0,2.0,78,0.00,,,0.00,WUHU21623XXSP,2013-07-19 06:38:00,
2013-07-19 03:38:00,77.3,70.4,29.64,South,180,1.8,1.8,79,0.00,,,0.00,WUHU21623XXSP,2013-07-19 07:38:00,
2013-07-19 04:38:00,77.1,70.6,29.62,SW,225,0.0,0.0,80,0.00,,,0.00,WUHU21623XXSP,2013-07-19 08:38:00,
2013-07-19 05:38:00,76.4,70.6,29.61,South,180,3.8,3.8,82,0.00,,,0.00,WUHU21623XXSP,2013-07-19 09:38:00,
2013-07-19 06:38:00,76.2,70.4,29.61,South,180,0.0,0.0,82,0.00,,,0.00,WUHU21623XXSP,2013-07-19 10:38:00,
2013-07-19 07:38:00,79.6,73.0,29.60,South,180,4.5,4.5,80,0.00,,,0.00,WUHU21623XXSP,2013-07-19 11:38:00,
2013-07-19 08:38:00,87.2,74.3,29.61,SW,225,1.6,1.6,65,0.00,,,0.00,WUHU21623XXSP,2013-07-19 12:38:00,
2013-07-19 09:38:00,84.9,73.8,29.61,WSW,248,4.5,4.5,69,0.00,,,0.00,WUHU21623XXSP,2013-07-19 13:38:00,
2013-07-19 10:38:00,87.4,74.0,29.58,North,0,13.6,13.6,64,0.00,,,0.00,WUHU21623XXSP,2013-07-19 14:38:00,
2013-07-19 10:51:00,87.7,73.4,29.58,NW,315,6.7,6.7,62,0.00,,,0.00,WUHU21623XXSP,2013-07-19 14:51:00,
2013-07-19 10:52:00,87.7,73.4,29.58,NW,315,6.7,6.7,62,0.00,,,0.00,WUHU21623XXSP,2013-07-19 14:52:00,
2013-07-19 10:57:00,87.7,73.4,29.59,South,180,0.7,6.7,62,0.00,,,0.01,WUHU21623XXSP,2013-07-19 14:57:00,
2013-07-19 11:04:00,87.9,73.5,29.58,NNW,337,11.6,11.6,62,0.00,,,0.01,WUHU21623XXSP,2013-07-19 15:04:00,
2013-07-19 11:09:00,88.1,73.7,29.58,SSW,202,15.9,15.9,62,0.00,,,0.01,WUHU21623XXSP,2013-07-19 15:09:00,
2013-07-19 11:14:00,88.3,73.4,29.57,SSE,157,6.3,15.9,61,0.00,,,0.01,WUHU21623XXSP,2013-07-19 15:14:00,
2013-07-19 11:19:00,88.5,73.6,29.58,SW,225,9.4,9.4,61,0.00,,,0.01,WUHU21623XXSP,2013-07-19 15:19:00,
2013-07-19 11:25:00,88.6,73.2,29.58,South,180,2.7,9.4,60,0.00,,,0.01,WUHU21623XXSP,2013-07-19 15:25:00,
2013-07-19 11:30:00,88.8,73.4,29.58,WSW,247,10.1,10.1,60,0.00,,,0.01,WUHU21623XXSP,2013-07-19 15:30:00,
2013-07-19 11:35:00,88.8,73.4,29.57,SSW,202,8.7,10.1,60,0.00,,,0.01,WUHU21623XXSP,2013-07-19 15:35:00,
2013-07-19 11:40:00,89.0,73.6,29.57,West,270,3.8,8.7,60,0.00,,,0.01,WUHU21623XXSP,2013-07-19 15:40:00,
2013-07-19 11:45:00,89.2,73.8,29.57,SSW,202,5.1,5.1,60,0.00,,,0.01,WUHU21623XXSP,2013-07-19 15:45:00,
2013-07-19 11:50:00,89.4,73.0,29.57,South,180,6.5,6.5,58,0.00,,,0.01,WUHU21623XXSP,2013-07-19 15:50:00,
2013-07-19 11:55:00,89.4,73.0,29.57,North,0,11.0,11.0,58,0.00,,,0.01,WUHU21623XXSP,2013-07-19 15:55:00,
2013-07-19 12:02:00,89.5,73.1,29.57,North,0,6.5,11.0,58,0.00,,,0.01,WUHU21623XXSP,2013-07-19 16:02:00,
2013-07-19 12:07:00,89.5,73.1,29.57,SSW,202,11.6,11.6,58,0.00,,,0.01,WUHU21623XXSP,2013-07-19 16:07:00,
2013-07-19 12:12:00,89.7,73.2,29.56,South,180,10.5,11.6,58,0.00,,,0.01,WUHU21623XXSP,2013-07-19 16:12:00,
2013-07-19 12:17:00,89.9,73.4,29.56,SSW,202,15.2,15.2,58,0.00,,,0.01,WUHU21623XXSP,2013-07-19 16:17:00,
2013-07-19 12:22:00,90.3,73.3,29.55,West,270,5.6,15.2,57,0.00,,,0.01,WUHU21623XXSP,2013-07-19 16:22:00,
2013-07-19 12:27:00,90.4,73.4,29.55,SSW,202,7.6,9.4,57,0.00,,,0.01,WUHU21623XXSP,2013-07-19 16:27:00,
2013-07-19 12:32:00,90.6,73.0,29.55,SSW,202,10.3,10.3,56,0.00,,,0.01,WUHU21623XXSP,2013-07-19 16:32:00,
2013-07-19 12:37:00,91.0,73.4,29.55,SW,225,3.4,11.0,56,0.00,,,0.01,WUHU21623XXSP,2013-07-19 16:37:00,
2013-07-19 12:42:00,91.5,73.9,29.54,West,270,16.1,16.1,56,0.00,,,0.01,WUHU21623XXSP,2013-07-19 16:42:00,
2013-07-19 12:47:00,91.9,73.1,29.54,WNW,292,4.3,16.1,54,0.00,,,0.01,WUHU21623XXSP,2013-07-19 16:47:00,
2013-07-19 12:52:00,91.9,72.6,29.55,SSW,202,6.3,6.3,53,0.00,,,0.01,WUHU21623XXSP,2013-07-19 16:52:00,
2013-07-19 12:57:00,92.2,73.4,29.55,NW,315,18.6,18.6,54,0.00,,,0.01,WUHU21623XXSP,2013-07-19 16:57:00,
2013-07-19 13:02:00,92.2,73.4,29.55,WSW,247,2.5,26.6,54,0.00,,,0.01,WUHU21623XXSP,2013-07-19 17:02:00,
2013-07-19 13:07:00,92.2,73.4,29.55,SSW,202,9.8,26.6,54,0.00,,,0.01,WUHU21623XXSP,2013-07-19 17:07:00,
2013-07-19 13:14:00,91.7,72.4,29.54,WNW,292,6.0,9.8,53,0.00,,,0.01,WUHU21623XXSP,2013-07-19 17:14:00,
2013-07-19 13:21:00,91.3,72.0,29.54,South,180,26.6,26.6,53,0.00,,,0.01,WUHU21623XXSP,2013-07-19 17:21:00,
2013-07-19 13:26:00,91.7,72.9,29.54,SSW,202,7.8,26.6,54,0.00,,,0.01,WUHU21623XXSP,2013-07-19 17:26:00,
2013-07-19 13:31:00,91.9,72.6,29.54,West,270,11.4,11.4,53,0.00,,,0.01,WUHU21623XXSP,2013-07-19 17:31:00,
2013-07-19 13:36:00,92.1,72.8,29.53,SW,225,5.4,11.4,53,0.00,,,0.01,WUHU21623XXSP,2013-07-19 17:36:00,
2013-07-19 13:41:00,92.1,72.8,29.53,SW,225,5.4,5.4,53,0.00,,,0.01,WUHU21623XXSP,2013-07-19 17:41:00,
2013-07-19 13:46:00,91.9,72.0,29.53,South,180,18.6,18.6,52,0.00,,,0.01,WUHU21623XXSP,2013-07-19 17:46:00,
2013-07-19 13:52:00,91.9,71.4,29.53,SSE,157,6.0,18.6,51,0.00,,,0.01,WUHU21623XXSP,2013-07-19 17:52:00,
2013-07-19 13:57:00,92.1,72.2,29.53,SSE,157,11.9,11.9,52,0.00,,,0.01,WUHU21623XXSP,2013-07-19 17:57:00,
2013-07-19 14:04:00,92.4,72.5,29.52,SW,225,10.7,11.9,52,0.00,,,0.01,WUHU21623XXSP,2013-07-19 18:04:00,
2013-07-19 14:11:00,92.6,72.6,29.52,North,0,4.3,10.7,52,0.00,,,0.01,WUHU21623XXSP,2013-07-19 18:11:00,
2013-07-19 14:16:00,92.6,72.6,29.51,WSW,247,1.6,4.3,52,0.00,,,0.01,WUHU21623XXSP,2013-07-19 18:16:00,
2013-07-19 14:21:00,92.8,72.8,29.51,SSW,202,4.7,4.7,52,0.00,,,0.01,WUHU21623XXSP,2013-07-19 18:21:00,
2013-07-19 14:26:00,93.1,72.5,29.51,SSE,157,7.8,7.8,51,0.00,,,0.01,WUHU21623XXSP,2013-07-19 18:26:00,
2013-07-19 14:31:00,92.8,71.6,29.52,South,180,24.4,26.6,50,0.00,,,0.01,WUHU21623XXSP,2013-07-19 18:31:00,
2013-07-19 14:36:00,92.6,71.4,29.52,South,180,24.4,26.6,50,0.00,,,0.01,WUHU21623XXSP,2013-07-19 18:36:00,
2013-07-19 14:42:00,91.9,70.2,29.52,NNW,337,4.7,24.4,49,0.00,,,0.01,WUHU21623XXSP,2013-07-19 18:42:00,
2013-07-19 14:47:00,90.1,67.9,29.53,SW,225,5.6,5.6,48,0.00,,,0.01,WUHU21623XXSP,2013-07-19 18:47:00,
2013-07-19 14:52:00,88.1,69.0,29.52,WNW,292,0.0,5.6,53,0.00,,,0.01,WUHU21623XXSP,2013-07-19 18:52:00,
2013-07-19 15:02:00,87.7,71.4,29.51,SW,225,3.8,3.8,58,0.00,,,0.01,WUHU21623XXSP,2013-07-19 19:02:00,
2013-07-19 15:07:00,87.9,72.1,29.51,SSW,202,1.1,3.8,59,0.00,,,0.01,WUHU21623XXSP,2013-07-19 19:07:00,
2013-07-19 15:17:00,87.9,71.0,29.52,South,180,4.0,4.0,57,0.00,,,0.01,WUHU21623XXSP,2013-07-19 19:17:00,
2013-07-19 15:22:00,87.4,70.6,29.51,South,180,2.9,4.0,57,0.00,,,0.01,WUHU21623XXSP,2013-07-19 19:22:00,
2013-07-19 15:27:00,86.7,70.4,29.51,SSE,157,2.9,2.9,58,0.00,,,0.01,WUHU21623XXSP,2013-07-19 19:27:00,
2013-07-19 15:32:00,86.5,70.2,29.52,West,270,4.5,4.5,58,0.00,,,0.01,WUHU21623XXSP,2013-07-19 19:32:00,
2013-07-19 15:45:00,87.4,71.6,29.51,WNW,292,3.4,3.4,59,0.00,,,0.01,WUHU21623XXSP,2013-07-19 19:45:00,
2013-07-19 15:50:00,87.7,71.9,29.51,South,180,2.7,3.4,59,0.00,,,0.01,WUHU21623XXSP,2013-07-19 19:50:00,
2013-07-19 15:55:00,87.9,72.6,29.51,WSW,247,10.7,10.7,60,0.00,,,0.01,WUHU21623XXSP,2013-07-19 19:55:00,
2013-07-19 15:59:00,88.8,72.4,29.50,WSW,247,8.3,10.7,58,0.00,,,0.01,WUHU21623XXSP,2013-07-19 19:59:00,
2013-07-19 16:06:00,89.5,73.1,29.50,WNW,292,2.9,8.3,58,0.00,,,0.01,WUHU21623XXSP,2013-07-19 20:06:00,
2013-07-19 16:11:00,89.7,72.7,29.51,SSE,157,10.7,10.7,57,0.00,,,0.01,WUHU21623XXSP,2013-07-19 20:11:00,
2013-07-19 16:16:00,90.3,72.7,29.50,WSW,247,6.3,10.7,56,0.00,,,0.01,WUHU21623XXSP,2013-07-19 20:16:00,
2013-07-19 16:21:00,90.4,72.3,29.50,SE,135,7.2,7.2,55,0.00,,,0.01,WUHU21623XXSP,2013-07-19 20:21:00,
2013-07-19 16:22:00,90.4,72.3,29.50,SE,135,7.2,7.2,55,0.00,,,0.01,WUHU21623XXSP,2013-07-19 20:22:00,
2013-07-19 16:27:00,90.6,72.5,29.50,SSW,202,3.6,7.2,55,0.00,,,0.01,WUHU21623XXSP,2013-07-19 20:27:00,
2013-07-19 16:32:00,90.6,71.9,29.50,SW,225,1.6,3.6,54,0.00,,,0.01,WUHU21623XXSP,2013-07-19 20:32:00,
2013-07-19 16:37:00,90.6,71.9,29.50,SW,225,14.3,14.3,54,0.00,,,0.01,WUHU21623XXSP,2013-07-19 20:37:00,
2013-07-19 16:42:00,90.6,72.5,29.50,South,180,5.6,14.3,55,0.00,,,0.01,WUHU21623XXSP,2013-07-19 20:42:00,
2013-07-19 16:47:00,90.6,72.5,29.50,South,180,2.7,5.6,55,0.00,,,0.01,WUHU21623XXSP,2013-07-19 20:47:00,
2013-07-19 16:52:00,90.8,72.7,29.50,South,180,1.8,2.7,55,0.00,,,0.01,WUHU21623XXSP,2013-07-19 20:52:00,
2013-07-19 16:57:00,91.2,73.0,29.50,South,180,5.1,5.1,55,0.00,,,0.01,WUHU21623XXSP,2013-07-19 20:57:00,
2013-07-19 17:02:00,91.0,72.3,29.50,SSE,157,2.5,5.1,54,0.00,,,0.01,WUHU21623XXSP,2013-07-19 21:02:00,
2013-07-19 17:07:00,90.8,72.1,29.50,WSW,247,8.9,8.9,54,0.00,,,0.01,WUHU21623XXSP,2013-07-19 21:07:00,
2013-07-19 17:12:00,90.8,72.7,29.50,SSW,202,12.3,12.3,55,0.00,,,0.01,WUHU21623XXSP,2013-07-19 21:12:00,
2013-07-19 17:17:00,91.5,72.8,29.50,South,180,4.9,12.3,54,0.00,,,0.01,WUHU21623XXSP,2013-07-19 21:17:00,
2013-07-19 17:28:00,91.3,72.0,29.50,WSW,247,8.3,8.3,53,0.00,,,0.01,WUHU21623XXSP,2013-07-19 21:28:00,
2013-07-19 17:34:00,91.0,71.2,29.49,SSW,202,5.4,8.3,52,0.00,,,0.01,WUHU21623XXSP,2013-07-19 21:34:00,
2013-07-19 17:39:00,90.8,71.0,29.49,West,270,3.4,5.4,52,0.00,,,0.01,WUHU21623XXSP,2013-07-19 21:39:00,
2013-07-19 17:44:00,90.6,70.8,29.49,WSW,247,5.4,5.4,52,0.00,,,0.01,WUHU21623XXSP,2013-07-19 21:44:00,
2013-07-19 17:49:00,90.3,70.5,29.49,SSW,202,7.2,8.5,52,0.00,,,0.01,WUHU21623XXSP,2013-07-19 21:49:00,
2013-07-19 17:54:00,89.9,70.1,29.49,SSE,157,10.5,10.5,52,0.00,,,0.01,WUHU21623XXSP,2013-07-19 21:54:00,
2013-07-19 18:00:00,89.2,70.1,29.49,SW,225,5.8,10.5,53,0.00,,,0.01,WUHU21623XXSP,2013-07-19 22:00:00,
2013-07-19 18:08:00,88.8,70.8,29.49,SW,225,2.0,5.8,55,0.00,,,0.01,WUHU21623XXSP,2013-07-19 22:08:00,
2013-07-19 18:13:00,89.2,71.2,29.49,SSW,202,13.6,13.6,55,0.00,,,0.01,WUHU21623XXSP,2013-07-19 22:13:00,
2013-07-19 18:19:00,89.5,71.5,29.48,South,180,7.6,13.6,55,0.00,,,0.01,WUHU21623XXSP,2013-07-19 22:19:00,
2013-07-19 18:24:00,89.7,71.1,29.49,WSW,247,8.5,8.5,54,0.00,,,0.01,WUHU21623XXSP,2013-07-19 22:24:00,
2013-07-19 18:30:00,89.4,71.4,29.48,SSW,202,0.9,8.5,55,0.00,,,0.01,WUHU21623XXSP,2013-07-19 22:30:00,
2013-07-19 18:35:00,89.2,71.2,29.48,SSW,202,3.1,3.1,55,0.00,,,0.01,WUHU21623XXSP,2013-07-19 22:35:00,
2013-07-19 18:40:00,89.2,71.2,29.48,SSW,202,9.2,9.2,55,0.00,,,0.01,WUHU21623XXSP,2013-07-19 22:40:00,
2013-07-19 18:45:00,89.2,71.7,29.49,SSE,157,0.9,9.2,56,0.00,,,0.01,WUHU21623XXSP,2013-07-19 22:45:00,
2013-07-19 18:50:00,89.0,71.5,29.49,South,180,4.3,4.3,56,0.00,,,0.01,WUHU21623XXSP,2013-07-19 22:50:00,
2013-07-19 18:55:00,88.8,70.8,29.49,South,180,2.7,4.3,55,0.00,,,0.01,WUHU21623XXSP,2013-07-19 22:55:00,
2013-07-19 19:00:00,88.6,71.2,29.48,SW,225,5.1,5.1,56,0.00,,,0.01,WUHU21623XXSP,2013-07-19 23:00:00,
2013-07-19 19:05:00,88.3,70.9,29.48,SSE,157,3.8,5.1,56,0.00,,,0.01,WUHU21623XXSP,2013-07-19 23:05:00,
2013-07-19 19:10:00,88.3,70.9,29.48,SW,225,5.6,5.6,56,0.00,,,0.01,WUHU21623XXSP,2013-07-19 23:10:00,
2013-07-19 19:17:00,87.9,70.5,29.48,South,180,6.7,6.7,56,0.00,,,0.01,WUHU21623XXSP,2013-07-19 23:17:00,
2013-07-19 19:22:00,87.7,70.8,29.48,WSW,247,12.3,12.3,57,0.00,,,0.01,WUHU21623XXSP,2013-07-19 23:22:00,
2013-07-19 19:27:00,87.6,70.2,29.48,South,180,2.7,12.3,56,0.00,,,0.01,WUHU21623XXSP,2013-07-19 23:27:00,
2013-07-19 19:35:00,87.2,70.4,29.49,SE,135,3.1,4.7,57,0.00,,,0.01,WUHU21623XXSP,2013-07-19 23:35:00,
2013-07-19 19:40:00,87.0,70.2,29.49,South,180,5.4,5.4,57,0.00,,,0.01,WUHU21623XXSP,2013-07-19 23:40:00,
2013-07-19 19:45:00,87.0,70.2,29.49,SSW,202,7.8,7.8,57,0.00,,,0.01,WUHU21623XXSP,2013-07-19 23:45:00,
2013-07-19 19:52:00,86.3,69.5,29.49,South,180,3.1,7.8,57,0.00,,,0.01,WUHU21623XXSP,2013-07-19 23:52:00,
2013-07-19 19:57:00,86.1,69.9,29.49,SSW,202,7.8,7.8,58,0.00,,,0.01,WUHU21623XXSP,2013-07-19 23:57:00,
2013-07-19 20:02:00,85.9,69.7,29.49,WSW,247,2.7,7.8,58,0.00,,,0.01,WUHU21623XXSP,2013-07-20 00:02:00,
2013-07-19 20:07:00,85.6,69.9,29.49,WSW,247,0.0,2.7,59,0.00,,,0.01,WUHU21623XXSP,2013-07-20 00:07:00,
2013-07-19 20:12:00,85.6,69.9,29.49,South,180,4.3,4.3,59,0.02,,,0.01,WUHU21623XXSP,2013-07-20 00:12:00,
2013-07-19 20:17:00,85.2,69.5,29.49,South,180,4.3,4.3,59,0.02,,,0.03,WUHU21623XXSP,2013-07-20 00:17:00,
2013-07-19 20:22:00,85.2,70.0,29.49,SW,225,0.0,4.3,60,0.02,,,0.03,WUHU21623XXSP,2013-07-20 00:22:00,
2013-07-19 20:27:00,85.0,69.8,29.49,SSW,202,0.9,0.9,60,0.02,,,0.03,WUHU21623XXSP,2013-07-20 00:27:00,
2013-07-19 20:32:00,85.0,69.8,29.49,South,180,6.5,6.5,60,0.02,,,0.03,WUHU21623XXSP,2013-07-20 00:32:00,
2013-07-19 20:37:00,84.7,70.0,29.49,SSW,202,2.2,6.5,61,0.02,,,0.03,WUHU21623XXSP,2013-07-20 00:37:00,
2013-07-19 20:42:00,84.7,70.0,29.49,South,180,0.0,2.7,61,0.02,,,0.03,WUHU21623XXSP,2013-07-20 00:42:00,
2013-07-19 20:47:00,84.3,70.1,29.49,WSW,247,5.6,5.6,62,0.02,,,0.03,WUHU21623XXSP,2013-07-20 00:47:00,
2013-07-19 20:52:00,84.1,69.9,29.49,SSW,202,1.6,5.6,62,0.02,,,0.03,WUHU21623XXSP,2013-07-20 00:52:00,
2013-07-19 20:57:00,83.8,70.1,29.49,SSW,202,0.0,2.5,63,0.02,,,0.03,WUHU21623XXSP,2013-07-20 00:57:00,
2013-07-19 21:02:00,83.4,69.7,29.49,WNW,292,3.6,3.6,63,0.02,,,0.03,WUHU21623XXSP,2013-07-20 01:02:00,
2013-07-19 21:07:00,83.4,70.2,29.49,South,180,1.8,3.6,64,0.00,,,0.03,WUHU21623XXSP,2013-07-20 01:07:00,
2013-07-19 21:17:00,82.9,70.2,29.49,WSW,247,0.0,0.0,65,0.00,,,0.03,WUHU21623XXSP,2013-07-20 01:17:00,
2013-07-19 21:24:00,82.7,70.0,29.49,SW,225,0.0,0.0,65,0.00,,,0.03,WUHU21623XXSP,2013-07-20 01:24:00,
2013-07-19 21:30:00,82.5,69.8,29.48,SSW,202,0.0,0.0,65,0.00,,,0.03,WUHU21623XXSP,2013-07-20 01:30:00,
2013-07-19 21:35:00,82.3,70.1,29.48,West,270,1.8,1.8,66,0.00,,,0.03,WUHU21623XXSP,2013-07-20 01:35:00,
2013-07-19 21:40:00,82.3,70.1,29.48,South,180,6.0,6.0,66,0.00,,,0.03,WUHU21623XXSP,2013-07-20 01:40:00,
2013-07-19 21:47:00,82.0,69.8,29.48,WNW,292,1.8,1.8,66,0.00,,,0.03,WUHU21623XXSP,2013-07-20 01:47:00,
2013-07-19 21:52:00,82.0,69.8,29.48,South,180,1.1,1.8,66,0.00,,,0.03,WUHU21623XXSP,2013-07-20 01:52:00,
2013-07-19 21:58:00,82.0,69.8,29.48,South,180,0.0,1.1,66,0.00,,,0.03,WUHU21623XXSP,2013-07-20 01:58:00,
2013-07-19 22:03:00,82.0,69.3,29.48,SSE,157,0.0,0.0,65,0.00,,,0.03,WUHU21623XXSP,2013-07-20 02:03:00,
2013-07-19 22:08:00,82.0,69.8,29.48,West,270,0.0,0.0,66,0.00,,,0.03,WUHU21623XXSP,2013-07-20 02:08:00,
2013-07-19 22:13:00,81.8,69.6,29.49,SSW,202,0.0,3.1,66,0.00,,,0.03,WUHU21623XXSP,2013-07-20 02:13:00,
2013-07-19 22:18:00,81.8,69.6,29.49,SSW,202,2.7,3.1,66,0.00,,,0.03,WUHU21623XXSP,2013-07-20 02:18:00,
2013-07-19 22:23:00,81.6,69.4,29.49,WNW,292,5.1,5.1,66,0.00,,,0.03,WUHU21623XXSP,2013-07-20 02:23:00,
2013-07-19 22:28:00,81.6,69.4,29.50,WSW,247,2.5,5.1,66,0.00,,,0.03,WUHU21623XXSP,2013-07-20 02:28:00,
2013-07-19 22:33:00,81.4,69.2,29.50,West,270,0.0,2.7,66,0.00,,,0.03,WUHU21623XXSP,2013-07-20 02:33:00,
2013-07-19 22:43:00,81.1,68.9,29.49,WSW,247,1.8,1.8,66,0.00,,,0.03,WUHU21623XXSP,2013-07-20 02:43:00,
2013-07-19 22:48:00,81.1,69.3,29.49,South,180,0.0,1.8,67,0.00,,,0.03,WUHU21623XXSP,2013-07-20 02:48:00,
2013-07-19 22:53:00,80.9,69.2,29.50,NNW,337,3.8,3.8,67,0.00,,,0.03,WUHU21623XXSP,2013-07-20 02:53:00,
2013-07-19 22:58:00,80.7,69.4,29.50,West,270,0.0,3.8,68,0.00,,,0.03,WUHU21623XXSP,2013-07-20 02:58:00,
2013-07-19 23:03:00,80.7,69.4,29.50,West,270,0.0,0.0,68,0.00,,,0.03,WUHU21623XXSP,2013-07-20 03:03:00,
2013-07-19 23:08:00,80.4,69.1,29.51,WSW,247,0.0,6.3,68,0.00,,,0.03,WUHU21623XXSP,2013-07-20 03:08:00,
2013-07-19 23:17:00,79.5,67.4,29.51,NNW,337,4.3,4.3,66,0.00,,,0.03,WUHU21623XXSP,2013-07-20 03:17:00,
2013-07-19 23:22:00,78.7,65.7,29.51,West,270,5.6,5.6,64,0.00,,,0.03,WUHU21623XXSP,2013-07-20 03:22:00,
2013-07-19 23:27:00,78.6,65.6,29.51,West,270,5.6,5.6,64,0.00,,,0.03,WUHU21623XXSP,2013-07-20 03:27:00,
2013-07-19 23:32:00,78.2,64.8,29.51,NW,315,4.7,5.6,63,0.00,,,0.03,WUHU21623XXSP,2013-07-20 03:32:00,
2013-07-19 23:37:00,77.7,64.8,29.52,NNW,337,0.0,4.7,64,0.00,,,0.03,WUHU21623XXSP,2013-07-20 03:37:00,
2013-07-19 23:42:00,77.7,64.8,29.52,NNW,337,0.0,0.0,64,0.00,,,0.03,WUHU21623XXSP,2013-07-20 03:42:00,
2013-07-19 23:47:00,77.1,64.2,29.52,West,270,2.5,2.5,64,0.00,,,0.03,WUHU21623XXSP,2013-07-20 03:47:00,
2013-07-19 23:52:00,76.8,63.9,29.52,NNW,337,0.0,2.5,64,0.00,,,0.03,WUHU21623XXSP,2013-07-20 03:52:00,
2013-07-19 23:57:00,76.6,63.7,29.52,NW,315,0.0,0.0,64,0.00,,,0.03,WUHU21623XXSP,2013-07-20 03:57:00,